STARLINK-1548 (46054 NORAD) Tracking and Keplerian Element Data

This shows tracking and keplerian element data for the satellite.

Feedback or suggestion? Click here.




ElementValue
Catalog46054
NameSTARLINK-1548
Epoch Orbit1906
Epoch Day336.83534576
Epoch Year2020
RAAN113.1783
Inclination52.99
Eccentricity0.0001903
Argument of Perigee102.1052
Mean Anonmoly258.0149
Mean Motion15.06041116
Decay Rate0.00047547
L11 46054U 20055AD 20336.83534576 .00047547 00000-0 32203-2 0 9995
L22 46054 52.9900 113.1783 0001903 102.1052 258.0149 15.06041116 19064

Live tracking and technical data element details for STARLINK-1548 (NORAD 46054). STARLINK-1548 can be tracked NOW for your location showing map with azimuth and elevation plus other details from your city location.

Track the satellite on the map from your city or location and see movement details for azimuth, elevation, latitude, longitude, range, height, and movement on the map or in text.







IsCatalogInMostPopularTable: catalog: 46054, numindb: 28
Update: records affected: 1



GetName: 46054 STARLINK-1548

Hit Count: updated at: Thu, 03 Dec 2020 07:28:34 GMT